Regional Weather Roundup
Issued by NWS Bismarck, ND

Home | Current Version | Previous Version | Text Only | Print | Product List | Glossary Off
Versions: 1 2 3 4 5 6 7 8 9 10 11 12 13 14 15 16 17 18 19 20 21 22 23 24 25 26 27 28 29 30 31 32 33 34 35 36 37 38 39 40 41 42 43 44 45 46 47 48 49 50

000
ASUS43 KBIS 012159
RWRBIS

NWR BROADCAST TEXT
NATIONAL WEATHER SERVICE BISMARCK ND
500 PM CDT MON SEP 01 2014

NOTE: "FAIR" INDICATES FEW OR NO CLOUDS BELOW 12,000 FEET WITH NO
SIGNIFICANT WEATHER AND/OR OBSTRUCTIONS TO VISIBILITY.


CITY           SKY/WX    TMP DP  RH WIND       PRES   REMARKS
WILLISTON      MOSUNNY   69  41  36 NW9       29.82S
MINOT          MOSUNNY   70  41  34 W12       29.78F
MINOT AFB      NOT AVBL
BISMARCK       SUNNY     74  44  34 NW13      29.82S
DICKINSON      NOT AVBL
GARRISON         N/A     71  47  42 W14G20    29.81S
HETTINGER ARPT CLOUDY    66  50  56 W10G17    29.89R
JAMESTOWN      NOT AVBL
CARRINGTON     FAIR      68  52  56 NW13G18   29.78S
CROSBY         FAIR      70  41  35 W14       29.80F
HARVEY         MOCLDY    73  48  40 NW12      29.78S
LINTON         FAIR      72  50  46 NW9       29.82S
RUGBY          FAIR      70  50  49 W14G20    29.76S
WATFORD CITY   MOCLDY    70  43  37 NW10      29.81S
$$

CITY           SKY/WX    TMP DP  RH WIND       PRES   REMARKS
GRAND FORKS    CLOUDY    70  51  51 NW6       29.72R
GRAND FORKS AF NOT AVBL
DEVILS LAKE    SUNNY     70  48  46 NW13      29.74S
FARGO          MOSUNNY   78  54  43 W13       29.70F
CAVALIER       FAIR      66  57  72 SW8       29.71R
GRAFTON        FAIR      64  55  72 W5        29.72R
GWINNER        PTCLDY    75  54  46 W13G21    29.76R
LANGDON        MOCLDY    70  54  56 NW15      29.72S
$$

CITY           SKY/WX    TMP DP  RH WIND       PRES   REMARKS
ABERDEEN       MOSUNNY   74  55  51 W9        29.77S
MOBRIDGE       MOSUNNY   75  53  46 N14       29.79S
BUFFALO          N/A     64  47  53 W12       29.84F
RAPID CITY     CLOUDY    61  53  75 N6        29.95F
GLASGOW        MOSUNNY   70  45  40 W9G18     29.83S
SIDNEY         PTSUNNY   70  43  37 N13       29.85R
WOLF POINT     SUNNY     74  46  36 W12       29.83S
GLENDIVE       PTSUNNY   66  46  48 W10       29.88S
MILES CITY     MOSUNNY   72  37  28 W13G25    29.87F
BAKER          PTSUNNY   65  49  56 S5        29.91S
$$

CITY           SKY/WX    TMP DP  RH WIND       PRES   REMARKS
BILLINGS       MOSUNNY   73  34  23 NW16G24   29.94F
GREAT FALLS    CLOUDY    71  36  27 W14G21    29.91F
$$



USA.gov is the U.S. government's official web portal to all federal, state and local government web resources and services.